Location: Newark
(41.7772°N, 74.7403°W)
Time: 12:59:19
(UTC+00:00)

Transit 4A - Pass Details

Date: 30 May 2020
Orbit: 866 x 978 km, 66.8° (Epoch: 06 July)

Event Time Altitude Azimuth Distance (km) Brightness Sun altitude
Exits shadow 07:12:03 30° 240° (WSW) 1,497 8.5 -19.1°
Maximum altitude 07:14:45 56° 304° (NW) 1,030 8.1 -18.8°
Drops below altitude 10° 07:20:34 10° 23° (NNE) 2,561 11.4 -18.2°
Sets 07:23:09 0° 28° (NNE) 3,519 12.6 -17.9°
